Location: Bern�tre
(50.1974°N, 2.0915°E)
Time: 08:56:59
(UTC+00:00)

Cosmos 1867 - Pass Details

Date: 18 September 2020
Orbit: 777 x 799 km, 65.0° (Epoch: 24 October)

Event Time Altitude Azimuth Distance (km) Brightness Sun altitude
Rises 18:24:18 0° 320° (NW) 3,313 7.6 -5.1°
Reaches altitude 10° 18:26:46 10° 324° (NW) 2,381 6.8 -5.4°
Maximum altitude 18:32:12 62° 45° (NE) 902 3.7 -6.3°
Drops below altitude 10° 18:37:36 10° 126° (SE) 2,367 5.5 -7.2°
Enters shadow 18:38:38 - 128° (SE) 2,754 5.8 -7.3°
